Regional Weather Roundup
Issued by NWS

Home | Current Version | Previous Version | Text Only | Print | Product List | Glossary Off
Versions: 1 2 3 4 5 6 7 8 9 10 11 12 13 14 15 16 17 18 19 20 21 22 23 24 25 26 27 28 29 30 31 32 33 34 35 36 37 38 39 40 41 42 43 44 45 46 47 48 49 50

000
ASUS45 KABQ 081110
RWRNM
NEW MEXICO REGIONAL WEATHER ROUNDUP
NATIONAL WEATHER SERVICE ALBUQUERQUE NM
400 AM MST THU DEC 08 2016

NOTE: "FAIR" MEANS FEW OR NO CLOUDS BELOW 12,000 FEET AGL WITH NO
       SIGNIFICANT WEATHER OR OBSTRUCTIONS TO VISION.

      THIS PRODUCT IS RELEASED AS TWO VERSIONS.  ONE VERSION NEAR
      THE TOP OF THE HOUR CONTAINING PRELIMINARY DATA FROM ALBUQUERQUE
      AND OTHER STATIONS.  A FINAL VERSION WITH ADDITIONAL DATA IS
      ISSUED ABOUT 10 MINUTES AFTER THE HOUR.

NMZ501-503-504-510>518-081200-
NORTHWEST PLATEAU/NORTHCENTRAL MOUNTAINS

CITY           SKY/WX    TMP DP  RH WIND       PRES   REMARKS
FARMINGTON     FAIR      14   6  70 NE7       30.26S WCI   4
LOS ALAMOS     MOCLDY    15  10  80 SW8       30.27R WCI   5
SANTA FE       CLOUDY    15   9  76 SE17      30.30R WCI  -1
TAOS           FAIR       7  -6  56 CALM      30.26R
ANGEL FIRE     FAIR       0  -3  85 CALM      30.21S

$$
NMZ402-403-502-505>509-081200-
WESTCENTRAL MOUNTAINS/SOUTHWEST MOUNTAINS

CITY           SKY/WX    TMP DP  RH WIND       PRES   REMARKS
GALLUP         FAIR      17  10  74 CALM      30.23F
GRANTS         CLOUDY    23  14  68 NW7       30.26S WCI  14
SILVER CITY    MOCLDY    36  31  80 NE5       30.18F WCI  32

$$
NMZ407-409-411-412-081200-
SOUTHERN DESERTS

CITY           SKY/WX    TMP DP  RH WIND       PRES   REMARKS
DEMING         FAIR      41  25  53 NE13      30.19R
LAS CRUCES     CLOUDY    39  26  57 NW3       30.22R
HOLLOMAN AFB   CLOUDY    33  17  51 NW6       30.30R WCI  28
T OR C         MOCLDY    30  15  53 N15G22    30.23R WCI  19

$$
NMZ519>523-081200-
CENTRAL VALLEYS/CENTRAL HIGHLANDS

CITY           SKY/WX    TMP DP  RH WIND       PRES   REMARKS
ALBUQUERQUE    CLOUDY    25  13  60 E21G26    30.29R WCI  11
DOUBLE EAGLE   CLOUDY    22  12  65 N10G16    30.29R WCI  11
MORIARTY ARPT  FLURRIES  16   9  75 SE5       30.36S WCI   9
CLINES CORNERS LGT SNOW  10   8  92 E12       30.30S FOG     WCI  -5
BELEN          CLOUDY    26  14  58 W5        30.29R WCI  21
SOCORRO        FAIR      26  13  59 N12       30.29S WCI  16

$$
NMZ524>526-539-540-081200-
SOUTHCENTRAL MOUNTAINS

CITY           SKY/WX    TMP DP  RH WIND       PRES   REMARKS
RUIDOSO        FOG       16  14  93 SE10      30.33S VSB 1/2 WCI   3

$$
NMZ527>531-081200-
NORTHEAST HIGHLANDS/NORTHEAST PLAINS

CITY           SKY/WX    TMP DP  RH WIND       PRES   REMARKS
LAS VEGAS      FLURRIES  11   8  88 SE5       30.32S WCI   3
RATON          CLOUDY     9   4  80 SW3       30.33S
CLAYTON        CLOUDY    13  10  88 NE3       30.44R

$$
NMZ532>537-081200-
EASTCENTRAL PLAINS

CITY           SKY/WX    TMP DP  RH WIND       PRES   REMARKS
TUCUMCARI      CLOUDY    20  13  74 E9        30.48S WCI   9
CANNON AFB     CLOUDY    20  20  99 NE13      30.45S WCI   7
CLOVIS AIRPORT CLOUDY    19  12  73 NE15      30.45S WCI   5

$$
NMZ028-029-538-081200-
SOUTHEAST PLAINS

CITY           SKY/WX    TMP DP  RH WIND       PRES   REMARKS
ROSWELL        CLOUDY    28  18  66 NE13      30.47R WCI  17
ARTESIA        CLOUDY    28  27  93 NE12      30.47R WCI  18
CARLSBAD       NOT AVBL


$$



USA.gov is the U.S. government's official web portal to all federal, state and local government web resources and services.